TimeEET,TemperatureF,Dew PointF,Humidity,Sea Level PressureIn,VisibilityMPH,Wind Direction,Wind SpeedMPH,Gust SpeedMPH,PrecipitationIn,Events,Conditions,WindDirDegrees,DateUTC
12:00 AM,71.6,28.4,20,29.80,-9999.0,NW,9.2,-,N/A,,Clear,310,2013-04-15 22:00:00
1:00 AM,71.6,26.6,19,29.77,-9999.0,NW,9.2,-,N/A,,Clear,320,2013-04-15 23:00:00
2:00 AM,67,25,11,29.77,6,Calm,Calm,,,,,,2013-04-16 00:00:00
2:00 AM,68.0,24.8,20,29.77,-9999.0,Calm,Calm,-,N/A,,Clear,0,2013-04-16 00:00:00
3:00 AM,68.0,33.8,28,29.77,-9999.0,Calm,Calm,-,N/A,,Clear,0,2013-04-16 01:00:00
4:00 AM,66.2,33.8,30,29.74,-9999.0,WNW,11.5,-,N/A,,Clear,290,2013-04-16 02:00:00
5:00 AM,69.8,57.2,64,29.77,-9999.0,North,17.3,-,N/A,,Clear,350,2013-04-16 03:00:00
6:00 AM,68.0,50.0,52,29.80,-9999.0,WNW,9.2,-,N/A,,Clear,300,2013-04-16 04:00:00
7:00 AM,71.6,57.2,60,29.83,-9999.0,WNW,19.6,-,N/A,,Clear,300,2013-04-16 05:00:00
8:00 AM,74,57,45,29.85,6,NW,18.4,,,,,310,2013-04-16 06:00:00
8:00 AM,73.4,57.2,57,29.83,-9999.0,NW,18.4,-,N/A,,Clear,310,2013-04-16 06:00:00
9:00 AM,78.8,53.6,42,29.86,-9999.0,North,12.7,-,N/A,,Clear,350,2013-04-16 07:00:00
10:00 AM,80.6,53.6,39,29.86,-9999.0,North,20.7,-,N/A,,Clear,350,2013-04-16 08:00:00
11:00 AM,82.4,51.8,35,29.83,-9999.0,North,23.0,-,N/A,,Clear,10,2013-04-16 09:00:00
12:00 PM,84.2,51.8,33,29.80,-9999.0,North,18.4,-,N/A,,Clear,10,2013-04-16 10:00:00
1:00 PM,86.0,53.6,33,29.80,-9999.0,North,16.1,-,N/A,,Clear,10,2013-04-16 11:00:00
2:00 PM,87,53,21,29.78,6,North,11.5,,,,,350,2013-04-16 12:00:00
2:00 PM,87.8,53.6,31,29.77,-9999.0,North,11.5,-,N/A,,Clear,350,2013-04-16 12:00:00
3:00 PM,87.8,48.2,25,29.77,-9999.0,North,16.1,-,N/A,,Clear,10,2013-04-16 13:00:00
4:00 PM,86.0,44.6,23,29.77,-9999.0,NNE,9.2,-,N/A,,Clear,30,2013-04-16 14:00:00
5:00 PM,86.0,44.6,23,29.77,-9999.0,North,9.2,-,N/A,,Clear,10,2013-04-16 15:00:00
6:00 PM,80.6,48.2,32,29.77,-9999.0,North,10.4,-,N/A,,Clear,360,2013-04-16 16:00:00
7:00 PM,77.0,50.0,39,29.80,-9999.0,North,11.5,-,N/A,,Clear,350,2013-04-16 17:00:00
8:00 PM,76,42,19,29.82,6,NNW,17.3,,,,,340,2013-04-16 18:00:00
8:00 PM,77.0,42.8,29,29.80,-9999.0,NNW,17.3,-,N/A,,Clear,340,2013-04-16 18:00:00
9:00 PM,75.2,37.4,25,29.83,-9999.0,NNW,19.6,-,N/A,,Clear,330,2013-04-16 19:00:00
10:00 PM,73.4,37.4,27,29.83,-9999.0,WNW,13.8,-,N/A,,Clear,300,2013-04-16 20:00:00
11:00 PM,71.6,42.8,35,29.83,-9999.0,NW,18.4,-,N/A,,Clear,310,2013-04-16 21:00:00